Location: *
(45.4590°N, 16.3650°E)
Time: 19:02:25
(UTC+00:00)

Cosmos 1125 Rocket - Pass Details

Date: 17 January 2020
Orbit: 757 x 780 km, 74.0° (Epoch: 16 February)

Event Time Altitude Azimuth Distance (km) Brightness Sun altitude
Rises 17:09:58 0° 192° (SSW) 3,200 7.1 -15.5°
Reaches altitude 10° 17:12:19 10° 190° (S) 2,279 6.3 -15.9°
Maximum altitude 17:17:27 69° 108° (ESE) 812 3.4 -16.8°
Enters shadow 17:21:38 16° 27° (NNE) 1,921 5.2 -17.5°
